Regional Weather Roundup
Issued by NWS

Home | Current Version | Previous Version | Text Only | Print | Product List | Glossary Off
Versions: 1 2 3 4 5 6 7 8 9 10 11 12 13 14 15 16 17 18 19 20 21 22 23 24 25 26 27

000
ASUS45 KCYS 170910
RWRWY

WYOMING REGIONAL WEATHER ROUNDUP
NATIONAL WEATHER SERVICE CHEYENNE WY
300 AM MDT THU APR 17 2014

NOTE:  "FAIR" INDICATES FEW OR NO CLOUDS BELOW 12,000 FEET
WITH NO SIGNIFICANT WEATHER AND/OR OBSTRUCTIONS TO VISIBILITY.

WYZ001-171000-
YELLOWSTONE NATIONAL PARK

CITY           SKY/WX    TMP DP  RH WIND       PRES   REMARKS
LK YELLOWSTONE   N/A     23  16  74 CALM      30.03S
W YELLOWSTONE  NOT AVBL

$$
WYZ002>013-054>058-071-098>099-171000-
NORTHERN WYOMING

CITY           SKY/WX    TMP DP  RH WIND       PRES   REMARKS
JACKSON          N/A     23  19  86 CALM      30.03S
CODY           PTCLDY    28  25  86 S3        30.00F
GREYBULL       PTCLDY    33  30  88 CALM      30.01F
WORLAND        CLEAR     32  29  88 S6        30.00F WCI  26
SHERIDAN       CLOUDY    32  30  92 NW6       30.02S WCI  26
BUFFALO        CLOUDY    29  27  92 SE7       30.01F WCI  22
GILLETTE       PTCLDY    32  29  88 S12       30.04F WCI  23
HULETT         PTSUNNY   34  32  93 SW10      30.07  WCI  26
NEWCASTLE      CLOUDY    30  28  93 S7        30.12  WCI  23

$$
WYZ014>020-022>026-101>103-171000-
CENTRAL WYOMING

CITY           SKY/WX    TMP DP  RH WIND       PRES   REMARKS
BIG PINEY      PTCLDY    20  13  74 E3        30.05F
PINEDALE       SUNNY     21  19  93 W3        30.06S
DUBOIS         FAIR      23  14  68 NW9       30.01S WCI  13
LANDER         CLEAR     30  23  75 NW6       30.02S WCI  24
RIVERTON       PTCLDY    25  23  92 NW9       30.03R WCI  15
CASPER         CLOUDY    32  30  92 W5        30.03F WCI  27
DOUGLAS        CLOUDY    34  32  92 SE13      30.06F WCI  25

$$
WYZ021-027>030-104>119-171000-
SOUTHERN WYOMING

CITY           SKY/WX    TMP DP  RH WIND       PRES   REMARKS
EVANSTON       CLEAR     31  10  41 S5        30.06S WCI  26
FORT BRIDGER   FAIR      34  11  38 SW8       30.08S WCI  27
ROCK SPRINGS   CLEAR     33  11  39 W6        30.05S WCI  28
DIXON          CLOUDY    27  19  71 NE5       30.07S WCI  22
RAWLINS        CLEAR     27  23  85 CALM      30.05S
SARATOGA       FAIR      21  18  86 W5        30.03F WCI  15
LARAMIE        PTCLDY    28  24  85 S14       30.01F WCI  17
CHEYENNE       MOCLDY    30  28  92 S13       30.06F WCI  20
TORRINGTON     CLOUDY    33  30  88 E14       30.11F WCI  23
PINE BLUFFS    CLOUDY    32  30  93 SE7       30.09S WCI  26

$$



USA.gov is the U.S. government's official web portal to all federal, state and local government web resources and services.